Time,TemperatureF,DewpointF,PressureIn,WindDirection,WindDirectionDegrees,WindSpeedMPH,WindSpeedGustMPH,Humidity,HourlyPrecipIn,Conditions,Clouds,dailyrainin,SoftwareType,DateUTC
2013-08-31 00:03:00,64.8,41.8,29.87,SE,124,0.0,0.0,43,0.00,,,0.00,Wunderground v.1.15,2013-08-31 07:03:00,
2013-08-31 00:08:00,64.3,40.7,29.87,SE,124,0.0,0.0,42,0.00,,,0.00,Wunderground v.1.15,2013-08-31 07:08:00,
2013-08-31 00:14:00,63.9,40.3,29.87,SE,124,0.0,0.0,42,0.00,,,0.00,Wunderground v.1.15,2013-08-31 07:14:00,
2013-08-31 00:20:00,63.7,41.4,29.85,SE,124,0.0,0.0,44,0.00,,,0.00,Wunderground v.1.15,2013-08-31 07:20:00,
2013-08-31 00:25:00,63.2,40.9,29.85,SE,124,0.0,0.0,44,0.00,,,0.00,Wunderground v.1.15,2013-08-31 07:25:00,
2013-08-31 00:30:00,62.9,41.8,29.85,SE,124,0.0,0.0,46,0.00,,,0.00,Wunderground v.1.15,2013-08-31 07:30:00,
2013-08-31 00:36:00,62.4,41.3,29.85,SE,124,0.0,0.0,46,0.00,,,0.00,Wunderground v.1.15,2013-08-31 07:36:00,
2013-08-31 00:41:00,62.3,41.2,29.85,SE,124,0.0,0.0,46,0.00,,,0.00,Wunderground v.1.15,2013-08-31 07:41:00,
2013-08-31 00:47:00,61.8,41.3,29.86,SE,124,0.0,0.0,47,0.00,,,0.00,Wunderground v.1.15,2013-08-31 07:47:00,
2013-08-31 00:53:00,61.5,41.1,29.86,SE,124,0.0,0.0,47,0.00,,,0.00,Wunderground v.1.15,2013-08-31 07:53:00,
2013-08-31 00:58:00,61.3,40.9,29.86,SE,124,0.0,0.0,47,0.00,,,0.00,Wunderground v.1.15,2013-08-31 07:58:00,
2013-08-31 01:03:00,61.3,40.9,29.86,SE,124,0.0,0.0,47,0.00,,,0.00,Wunderground v.1.15,2013-08-31 08:03:00,
2013-08-31 01:09:00,61.2,40.8,29.86,SE,124,0.0,0.0,47,0.00,,,0.00,Wunderground v.1.15,2013-08-31 08:09:00,
2013-08-31 01:15:00,61.0,40.6,29.84,SE,124,0.0,0.0,47,0.00,,,0.00,Wunderground v.1.15,2013-08-31 08:15:00,
2013-08-31 01:20:00,61.0,41.2,29.84,SE,124,0.0,0.0,48,0.00,,,0.00,Wunderground v.1.15,2013-08-31 08:20:00,
2013-08-31 01:26:00,60.7,41.4,29.84,SE,124,0.0,0.0,49,0.00,,,0.00,Wunderground v.1.15,2013-08-31 08:26:00,
2013-08-31 01:31:00,60.5,41.2,29.83,SE,124,0.0,0.0,49,0.00,,,0.00,Wunderground v.1.15,2013-08-31 08:31:00,
2013-08-31 01:37:00,60.1,40.9,29.83,SE,124,0.0,0.0,49,0.00,,,0.00,Wunderground v.1.15,2013-08-31 08:37:00,
2013-08-31 01:42:00,59.9,41.2,29.83,SE,124,0.0,0.0,50,0.00,,,0.00,Wunderground v.1.15,2013-08-31 08:42:00,
2013-08-31 01:47:00,59.8,41.1,29.84,SE,126,0.0,0.0,50,0.00,,,0.00,Wunderground v.1.15,2013-08-31 08:47:00,
2013-08-31 01:53:00,59.5,42.3,29.84,SE,126,0.0,0.0,53,0.00,,,0.00,Wunderground v.1.15,2013-08-31 08:53:00,
2013-08-31 01:58:00,59.3,42.2,29.84,SE,126,0.0,0.0,53,0.00,,,0.00,Wunderground v.1.15,2013-08-31 08:58:00,
2013-08-31 02:04:00,59.2,41.6,29.84,SE,126,0.0,0.0,52,0.00,,,0.00,Wunderground v.1.15,2013-08-31 09:04:00,
2013-08-31 02:09:00,58.9,41.3,29.84,SE,126,0.0,0.0,52,0.00,,,0.00,Wunderground v.1.15,2013-08-31 09:09:00,
2013-08-31 02:14:00,58.3,41.2,29.84,SE,126,0.0,1.0,53,0.00,,,0.00,Wunderground v.1.15,2013-08-31 09:14:00,
2013-08-31 02:19:00,57.8,40.8,29.84,SE,126,0.0,1.0,53,0.00,,,0.00,Wunderground v.1.15,2013-08-31 09:19:00,
2013-08-31 02:24:00,57.3,41.3,29.84,SE,126,0.0,0.0,55,0.00,,,0.00,Wunderground v.1.15,2013-08-31 09:24:00,
2013-08-31 02:29:00,57.2,41.6,29.84,SE,126,0.0,0.0,56,0.00,,,0.00,Wunderground v.1.15,2013-08-31 09:29:00,
2013-08-31 02:34:00,57.0,41.4,29.84,SE,126,0.0,0.0,56,0.00,,,0.00,Wunderground v.1.15,2013-08-31 09:34:00,
2013-08-31 02:39:00,56.9,41.4,29.84,SE,126,0.0,1.0,56,0.00,,,0.00,Wunderground v.1.15,2013-08-31 09:39:00,
2013-08-31 02:44:00,56.7,41.2,29.83,SE,126,0.0,0.0,56,0.00,,,0.00,Wunderground v.1.15,2013-08-31 09:44:00,
2013-08-31 02:49:00,56.6,41.5,29.83,SE,126,0.0,1.0,57,0.00,,,0.00,Wunderground v.1.15,2013-08-31 09:49:00,
2013-08-31 02:54:00,56.5,41.4,29.83,SE,126,0.0,0.0,57,0.00,,,0.00,Wunderground v.1.15,2013-08-31 09:54:00,
2013-08-31 02:59:00,56.5,41.9,29.83,SE,126,0.0,1.0,58,0.00,,,0.00,Wunderground v.1.15,2013-08-31 09:59:00,
2013-08-31 03:04:00,56.3,42.6,29.83,SE,126,0.0,0.0,60,0.00,,,0.00,Wunderground v.1.15,2013-08-31 10:04:00,
2013-08-31 03:09:00,56.3,42.1,29.83,SE,126,0.0,0.0,59,0.00,,,0.00,Wunderground v.1.15,2013-08-31 10:09:00,
2013-08-31 03:14:00,56.2,40.7,29.84,SE,126,0.0,1.0,56,0.00,,,0.00,Wunderground v.1.15,2013-08-31 10:14:00,
2013-08-31 03:19:00,55.9,40.4,29.84,SE,126,1.0,1.0,56,0.00,,,0.00,Wunderground v.1.15,2013-08-31 10:19:00,
2013-08-31 03:24:00,55.7,40.2,29.84,SE,126,0.0,1.0,56,0.00,,,0.00,Wunderground v.1.15,2013-08-31 10:24:00,
2013-08-31 03:29:00,55.6,40.1,29.84,SE,126,0.0,1.0,56,0.00,,,0.00,Wunderground v.1.15,2013-08-31 10:29:00,
2013-08-31 03:34:00,55.4,40.0,29.84,SE,126,0.0,1.0,56,0.00,,,0.00,Wunderground v.1.15,2013-08-31 10:34:00,
2013-08-31 03:39:00,55.3,39.4,29.84,SE,126,0.0,1.0,55,0.00,,,0.00,Wunderground v.1.15,2013-08-31 10:39:00,
2013-08-31 03:44:00,55.0,38.6,29.84,SE,126,0.0,0.0,54,0.00,,,0.00,Wunderground v.1.15,2013-08-31 10:44:00,
2013-08-31 03:49:00,54.8,38.5,29.84,SE,126,0.0,1.0,54,0.00,,,0.00,Wunderground v.1.15,2013-08-31 10:49:00,
2013-08-31 03:54:00,54.8,38.0,29.84,SE,126,0.0,1.0,53,0.00,,,0.00,Wunderground v.1.15,2013-08-31 10:54:00,
2013-08-31 03:59:00,54.7,38.4,29.84,SE,126,0.0,1.0,54,0.00,,,0.00,Wunderground v.1.15,2013-08-31 10:59:00,
2013-08-31 04:04:00,54.7,37.9,29.84,SE,126,0.0,0.0,53,0.00,,,0.00,Wunderground v.1.15,2013-08-31 11:04:00,
2013-08-31 04:10:00,54.5,37.7,29.84,SE,126,0.0,0.0,53,0.00,,,0.00,Wunderground v.1.15,2013-08-31 11:10:00,
2013-08-31 04:15:00,54.5,37.7,29.84,SE,126,0.0,0.0,53,0.00,,,0.00,Wunderground v.1.15,2013-08-31 11:15:00,
2013-08-31 04:20:00,54.4,37.6,29.84,SE,126,0.0,0.0,53,0.00,,,0.00,Wunderground v.1.15,2013-08-31 11:20:00,
2013-08-31 04:25:00,54.4,37.6,29.84,SE,126,0.0,0.0,53,0.00,,,0.00,Wunderground v.1.15,2013-08-31 11:25:00,
2013-08-31 04:30:00,54.2,37.9,29.85,SE,126,0.0,0.0,54,0.00,,,0.00,Wunderground v.1.15,2013-08-31 11:30:00,
2013-08-31 04:35:00,54.1,37.8,29.85,SE,126,0.0,0.0,54,0.00,,,0.00,Wunderground v.1.15,2013-08-31 11:35:00,
2013-08-31 04:40:00,53.9,37.6,29.85,SE,126,0.0,0.0,54,0.00,,,0.00,Wunderground v.1.15,2013-08-31 11:40:00,
2013-08-31 04:45:00,53.6,37.8,29.85,SE,126,0.0,0.0,55,0.00,,,0.00,Wunderground v.1.15,2013-08-31 11:45:00,
2013-08-31 04:50:00,53.5,37.7,29.85,SE,126,0.0,0.0,55,0.00,,,0.00,Wunderground v.1.15,2013-08-31 11:50:00,
2013-08-31 04:55:00,53.5,38.2,29.85,SE,126,0.0,0.0,56,0.00,,,0.00,Wunderground v.1.15,2013-08-31 11:55:00,
2013-08-31 05:00:00,53.3,38.4,29.85,SE,126,0.0,0.0,57,0.00,,,0.00,Wunderground v.1.15,2013-08-31 12:00:00,
2013-08-31 05:05:00,53.2,37.9,29.85,SE,126,0.0,0.0,56,0.00,,,0.00,Wunderground v.1.15,2013-08-31 12:05:00,
2013-08-31 05:10:00,53.2,38.4,29.85,SE,126,0.0,0.0,57,0.00,,,0.00,Wunderground v.1.15,2013-08-31 12:10:00,
2013-08-31 05:15:00,53.2,37.9,29.86,SE,126,0.0,1.0,56,0.00,,,0.00,Wunderground v.1.15,2013-08-31 12:15:00,
2013-08-31 05:20:00,53.2,37.9,29.86,SE,126,0.0,0.0,56,0.00,,,0.00,Wunderground v.1.15,2013-08-31 12:20:00,
2013-08-31 05:25:00,53.2,38.8,29.86,SE,126,0.0,0.0,58,0.00,,,0.00,Wunderground v.1.15,2013-08-31 12:25:00,
2013-08-31 05:30:00,53.1,38.3,29.86,SE,126,0.0,0.0,57,0.00,,,0.00,Wunderground v.1.15,2013-08-31 12:30:00,
2013-08-31 05:35:00,52.9,38.5,29.86,SE,126,0.0,0.0,58,0.00,,,0.00,Wunderground v.1.15,2013-08-31 12:35:00,
2013-08-31 05:40:00,52.8,38.4,29.86,SE,126,0.0,0.0,58,0.00,,,0.00,Wunderground v.1.15,2013-08-31 12:40:00,
2013-08-31 05:45:00,52.6,38.7,29.86,SE,126,0.0,0.0,59,0.00,,,0.00,Wunderground v.1.15,2013-08-31 12:45:00,
2013-08-31 05:50:00,52.5,39.0,29.86,SE,126,0.0,0.0,60,0.00,,,0.00,Wunderground v.1.15,2013-08-31 12:50:00,
2013-08-31 05:56:00,52.3,38.8,29.86,SE,126,0.0,0.0,60,0.00,,,0.00,Wunderground v.1.15,2013-08-31 12:56:00,
2013-08-31 06:00:00,52.3,38.4,29.86,SE,126,0.0,0.0,59,0.00,,,0.00,Wunderground v.1.15,2013-08-31 13:00:00,
2013-08-31 06:06:00,52.2,38.3,29.86,SE,126,0.0,0.0,59,0.00,,,0.00,Wunderground v.1.15,2013-08-31 13:06:00,
2013-08-31 06:11:00,51.7,38.3,29.86,SE,126,0.0,0.0,60,0.00,,,0.00,Wunderground v.1.15,2013-08-31 13:11:00,
2013-08-31 06:16:00,51.4,38.4,29.88,SE,126,0.0,1.0,61,0.00,,,0.00,Wunderground v.1.15,2013-08-31 13:16:00,
2013-08-31 06:21:00,51.1,38.5,29.88,SE,126,0.0,0.0,62,0.00,,,0.00,Wunderground v.1.15,2013-08-31 13:21:00,
2013-08-31 06:26:00,51.0,38.4,29.88,SE,126,1.0,1.0,62,0.00,,,0.00,Wunderground v.1.15,2013-08-31 13:26:00,
2013-08-31 06:31:00,51.0,38.8,29.89,SE,126,0.0,0.0,63,0.00,,,0.00,Wunderground v.1.15,2013-08-31 13:31:00,
2013-08-31 06:36:00,51.0,39.2,29.89,SE,126,0.0,1.0,64,0.00,,,0.00,Wunderground v.1.15,2013-08-31 13:36:00,
2013-08-31 06:41:00,51.0,39.2,29.89,SE,126,0.0,0.0,64,0.00,,,0.00,Wunderground v.1.15,2013-08-31 13:41:00,
2013-08-31 06:46:00,51.0,39.2,29.90,SE,126,0.0,1.0,64,0.00,,,0.00,Wunderground v.1.15,2013-08-31 13:46:00,
2013-08-31 06:51:00,51.1,38.5,29.90,SE,126,0.0,0.0,62,0.00,,,0.00,Wunderground v.1.15,2013-08-31 13:51:00,
2013-08-31 06:56:00,51.4,38.8,29.90,SE,126,0.0,0.0,62,0.00,,,0.00,Wunderground v.1.15,2013-08-31 13:56:00,
2013-08-31 07:01:00,51.7,38.7,29.89,SE,126,0.0,0.0,61,0.00,,,0.00,Wunderground v.1.15,2013-08-31 14:01:00,
2013-08-31 07:06:00,51.9,38.4,29.89,SE,126,1.0,1.0,60,0.00,,,0.00,Wunderground v.1.15,2013-08-31 14:06:00,
2013-08-31 07:11:00,52.0,39.4,29.89,SE,126,0.0,0.0,62,0.00,,,0.00,Wunderground v.1.15,2013-08-31 14:11:00,
2013-08-31 07:16:00,52.0,39.0,29.95,SE,126,0.0,0.0,61,0.00,,,0.00,Wunderground v.1.15,2013-08-31 14:16:00,
2013-08-31 07:21:00,52.2,39.1,29.95,SE,126,0.0,0.0,61,0.00,,,0.00,Wunderground v.1.15,2013-08-31 14:21:00,
2013-08-31 07:26:00,52.5,38.6,29.95,SE,126,0.0,1.0,59,0.00,,,0.00,Wunderground v.1.15,2013-08-31 14:26:00,
2013-08-31 07:31:00,53.1,40.0,29.94,SE,126,0.0,0.0,61,0.00,,,0.00,Wunderground v.1.15,2013-08-31 14:31:00,
2013-08-31 07:36:00,53.5,39.9,29.94,SE,126,0.0,0.0,60,0.00,,,0.00,Wunderground v.1.15,2013-08-31 14:36:00,
2013-08-31 07:41:00,53.9,39.9,29.94,SE,126,0.0,0.0,59,0.00,,,0.00,Wunderground v.1.15,2013-08-31 14:41:00,
2013-08-31 07:47:00,54.4,39.9,29.94,SE,126,0.0,0.0,58,0.00,,,0.00,Wunderground v.1.15,2013-08-31 14:47:00,
2013-08-31 07:52:00,54.7,39.8,29.94,SE,126,0.0,0.0,57,0.00,,,0.00,Wunderground v.1.15,2013-08-31 14:52:00,
2013-08-31 07:57:00,55.3,39.4,29.94,SE,126,0.0,0.0,55,0.00,,,0.00,Wunderground v.1.15,2013-08-31 14:57:00,
2013-08-31 08:02:00,55.9,39.5,29.93,SE,126,0.0,0.0,54,0.00,,,0.00,Wunderground v.1.15,2013-08-31 15:02:00,
2013-08-31 08:07:00,56.6,39.7,29.93,SE,126,0.0,0.0,53,0.00,,,0.00,Wunderground v.1.15,2013-08-31 15:07:00,
2013-08-31 08:12:00,57.3,40.3,29.93,SE,126,0.0,0.0,53,0.00,,,0.00,Wunderground v.1.15,2013-08-31 15:12:00,
2013-08-31 08:17:00,58.3,39.7,29.94,SE,126,0.0,0.0,50,0.00,,,0.00,Wunderground v.1.15,2013-08-31 15:17:00,
2013-08-31 08:22:00,59.0,39.3,29.94,SE,126,0.0,0.0,48,0.00,,,0.00,Wunderground v.1.15,2013-08-31 15:22:00,
2013-08-31 08:27:00,59.9,39.6,29.94,SE,126,0.0,0.0,47,0.00,,,0.00,Wunderground v.1.15,2013-08-31 15:27:00,
2013-08-31 08:32:00,60.7,39.8,29.94,SE,126,0.0,0.0,46,0.00,,,0.00,Wunderground v.1.15,2013-08-31 15:32:00,
2013-08-31 08:37:00,61.6,39.5,29.94,SE,126,0.0,1.0,44,0.00,,,0.00,Wunderground v.1.15,2013-08-31 15:37:00,
2013-08-31 08:42:00,62.7,40.5,29.94,SE,126,0.0,0.0,44,0.00,,,0.00,Wunderground v.1.15,2013-08-31 15:42:00,
2013-08-31 08:47:00,63.9,41.5,29.92,SE,126,0.0,0.0,44,0.00,,,0.00,Wunderground v.1.15,2013-08-31 15:47:00,
2013-08-31 08:52:00,64.7,42.3,29.92,SE,126,0.0,0.0,44,0.00,,,0.00,Wunderground v.1.15,2013-08-31 15:52:00,
2013-08-31 08:57:00,65.3,42.8,29.92,SE,126,0.0,0.0,44,0.00,,,0.00,Wunderground v.1.15,2013-08-31 15:57:00,
2013-08-31 09:02:00,65.8,43.3,29.91,SE,126,1.0,1.0,44,0.00,,,0.00,Wunderground v.1.15,2013-08-31 16:02:00,
2013-08-31 09:07:00,66.1,43.5,29.91,SE,126,1.0,1.0,44,0.00,,,0.00,Wunderground v.1.15,2013-08-31 16:07:00,
2013-08-31 09:12:00,66.3,43.1,29.91,SE,126,0.0,1.0,43,0.00,,,0.00,Wunderground v.1.15,2013-08-31 16:12:00,
2013-08-31 09:17:00,66.4,42.0,29.92,SE,126,0.0,1.0,41,0.00,,,0.00,Wunderground v.1.15,2013-08-31 16:17:00,
2013-08-31 09:23:00,66.6,42.8,29.92,SE,126,0.0,0.0,42,0.00,,,0.00,Wunderground v.1.15,2013-08-31 16:23:00,
2013-08-31 09:29:00,67.1,43.2,29.92,SE,126,0.0,0.0,42,0.00,,,0.00,Wunderground v.1.15,2013-08-31 16:29:00,
2013-08-31 09:34:00,67.6,43.1,29.92,SE,126,0.0,0.0,41,0.00,,,0.00,Wunderground v.1.15,2013-08-31 16:34:00,
2013-08-31 09:39:00,67.9,44.6,29.92,SE,126,0.0,0.0,43,0.00,,,0.00,Wunderground v.1.15,2013-08-31 16:39:00,
2013-08-31 09:44:00,68.1,44.7,29.92,SE,126,0.0,0.0,43,0.00,,,0.00,Wunderground v.1.15,2013-08-31 16:44:00,
2013-08-31 09:49:00,68.4,44.4,29.90,SE,126,0.0,0.0,42,0.00,,,0.00,Wunderground v.1.15,2013-08-31 16:49:00,
2013-08-31 09:54:00,68.8,44.8,29.90,SE,126,0.0,0.0,42,0.00,,,0.00,Wunderground v.1.15,2013-08-31 16:54:00,
2013-08-31 09:59:00,68.8,45.4,29.90,SE,126,0.0,0.0,43,0.00,,,0.00,Wunderground v.1.15,2013-08-31 16:59:00,
2013-08-31 10:04:00,69.1,45.7,29.90,SE,126,0.0,0.0,43,0.00,,,0.00,Wunderground v.1.15,2013-08-31 17:04:00,
2013-08-31 10:09:00,69.4,45.3,29.90,SE,126,0.0,1.0,42,0.00,,,0.00,Wunderground v.1.15,2013-08-31 17:09:00,
2013-08-31 10:14:00,69.9,45.8,29.90,SE,126,0.0,0.0,42,0.00,,,0.00,Wunderground v.1.15,2013-08-31 17:14:00,
2013-08-31 10:19:00,70.4,44.9,29.90,ESE,110,0.0,1.0,40,0.00,,,0.00,Wunderground v.1.15,2013-08-31 17:19:00,
2013-08-31 10:24:00,70.9,44.7,29.90,ESE,110,0.0,0.0,39,0.00,,,0.00,Wunderground v.1.15,2013-08-31 17:24:00,
2013-08-31 10:29:00,71.5,43.1,29.89,ESE,110,0.0,0.0,36,0.00,,,0.00,Wunderground v.1.15,2013-08-31 17:29:00,
2013-08-31 10:34:00,72.1,42.2,29.89,SSW,213,0.0,1.0,34,0.00,,,0.00,Wunderground v.1.15,2013-08-31 17:34:00,
2013-08-31 10:39:00,72.8,43.5,29.89,SSW,203,0.0,2.0,35,0.00,,,0.00,Wunderground v.1.15,2013-08-31 17:39:00,
2013-08-31 10:44:00,73.5,42.6,29.87,SSW,202,0.0,1.0,33,0.00,,,0.00,Wunderground v.1.15,2013-08-31 17:44:00,
2013-08-31 10:49:00,74.4,44.2,29.87,SSW,202,0.0,0.0,34,0.00,,,0.00,Wunderground v.1.15,2013-08-31 17:49:00,
2013-08-31 10:55:00,75.1,43.2,29.87,SSW,203,0.0,1.0,32,0.00,,,0.00,Wunderground v.1.15,2013-08-31 17:55:00,
2013-08-31 11:00:00,75.8,43.0,29.86,SSW,203,0.0,0.0,31,0.00,,,0.00,Wunderground v.1.15,2013-08-31 18:00:00,
2013-08-31 11:05:00,76.7,43.8,29.86,SSW,202,0.0,1.0,31,0.00,,,0.00,Wunderground v.1.15,2013-08-31 18:05:00,
2013-08-31 11:10:00,77.4,44.4,29.86,SSW,202,0.0,0.0,31,0.00,,,0.00,Wunderground v.1.15,2013-08-31 18:10:00,
2013-08-31 11:15:00,78.1,45.8,29.86,SSW,203,0.0,2.0,32,0.00,,,0.00,Wunderground v.1.15,2013-08-31 18:15:00,
2013-08-31 11:20:00,78.6,42.8,29.86,SSW,203,0.0,0.0,28,0.00,,,0.00,Wunderground v.1.15,2013-08-31 18:20:00,
2013-08-31 11:25:00,79.2,45.1,29.86,SSW,193,0.0,2.0,30,0.00,,,0.00,Wunderground v.1.15,2013-08-31 18:25:00,
2013-08-31 11:30:00,79.8,41.9,29.84,SSW,193,0.0,1.0,26,0.00,,,0.00,Wunderground v.1.15,2013-08-31 18:30:00,
2013-08-31 11:35:00,80.3,40.2,29.84,East,83,0.0,6.0,24,0.00,,,0.00,Wunderground v.1.15,2013-08-31 18:35:00,
2013-08-31 11:40:00,81.1,40.9,29.84,East,83,0.0,1.0,24,0.00,,,0.00,Wunderground v.1.15,2013-08-31 18:40:00,
2013-08-31 11:45:00,81.6,39.1,29.83,East,83,0.0,2.0,22,0.00,,,0.00,Wunderground v.1.15,2013-08-31 18:45:00,
2013-08-31 11:50:00,82.4,43.0,29.83,East,83,0.0,4.0,25,0.00,,,0.00,Wunderground v.1.15,2013-08-31 18:50:00,
2013-08-31 11:55:00,83.0,41.4,29.83,ENE,78,4.0,4.0,23,0.00,,,0.00,Wunderground v.1.15,2013-08-31 18:55:00,
2013-08-31 12:00:00,83.6,38.3,29.82,NE,45,0.0,1.0,20,0.00,,,0.00,Wunderground v.1.15,2013-08-31 19:00:00,
2013-08-31 12:05:00,84.1,41.1,29.82,ENE,75,1.0,2.0,22,0.00,,,0.00,Wunderground v.1.15,2013-08-31 19:05:00,
2013-08-31 12:10:00,84.7,39.2,29.82,NE,41,2.0,2.0,20,0.00,,,0.00,Wunderground v.1.15,2013-08-31 19:10:00,
2013-08-31 12:15:00,85.1,38.2,29.82,NNE,30,4.0,8.0,19,0.00,,,0.00,Wunderground v.1.15,2013-08-31 19:15:00,
2013-08-31 12:20:00,85.3,38.4,29.82,NNE,21,1.0,4.0,19,0.00,,,0.00,Wunderground v.1.15,2013-08-31 19:20:00,
2013-08-31 12:25:00,85.5,37.1,29.82,NNE,23,0.0,6.0,18,0.00,,,0.00,Wunderground v.1.15,2013-08-31 19:25:00,
2013-08-31 12:30:00,85.7,38.7,29.82,NNE,18,6.0,8.0,19,0.00,,,0.00,Wunderground v.1.15,2013-08-31 19:30:00,
2013-08-31 12:35:00,86.1,39.0,29.82,North,7,0.0,8.0,19,0.00,,,0.00,Wunderground v.1.15,2013-08-31 19:35:00,
2013-08-31 12:40:00,86.5,38.0,29.82,NNE,28,1.0,1.0,18,0.00,,,0.00,Wunderground v.1.15,2013-08-31 19:40:00,
2013-08-31 12:45:00,86.7,38.1,29.80,NNE,16,1.0,7.0,18,0.00,,,0.00,Wunderground v.1.15,2013-08-31 19:45:00,
2013-08-31 12:50:00,86.7,36.7,29.80,North,0,0.0,2.0,17,0.00,,,0.00,Wunderground v.1.15,2013-08-31 19:50:00,
2013-08-31 12:55:00,87.2,38.5,29.80,North,0,1.0,2.0,18,0.00,,,0.00,Wunderground v.1.15,2013-08-31 19:55:00,
2013-08-31 13:00:00,87.8,40.4,29.79,North,11,7.0,7.0,19,0.00,,,0.00,Wunderground v.1.15,2013-08-31 20:00:00,
2013-08-31 13:06:00,88.0,37.7,29.79,NNE,25,9.0,9.0,17,0.00,,,0.00,Wunderground v.1.15,2013-08-31 20:06:00,
2013-08-31 13:11:00,88.0,39.2,29.79,North,356,4.0,6.0,18,0.00,,,0.00,Wunderground v.1.15,2013-08-31 20:11:00,
2013-08-31 13:16:00,88.0,39.2,29.80,SW,233,1.0,8.0,18,0.00,,,0.00,Wunderground v.1.15,2013-08-31 20:16:00,
2013-08-31 13:21:00,88.6,38.2,29.80,NW,311,2.0,13.0,17,0.00,,,0.00,Wunderground v.1.15,2013-08-31 20:21:00,
2013-08-31 13:26:00,89.0,40.0,29.80,NW,316,2.0,13.0,18,0.00,,,0.00,Wunderground v.1.15,2013-08-31 20:26:00,
2013-08-31 13:32:00,89.3,38.8,29.79,NW,313,2.0,6.0,17,0.00,,,0.00,Wunderground v.1.15,2013-08-31 20:32:00,
2013-08-31 13:37:00,89.5,38.9,29.79,NNE,17,8.0,10.0,17,0.00,,,0.00,Wunderground v.1.15,2013-08-31 20:37:00,
2013-08-31 13:42:00,89.3,38.8,29.79,NNE,30,7.0,8.0,17,0.00,,,0.00,Wunderground v.1.15,2013-08-31 20:42:00,
2013-08-31 13:47:00,88.8,38.4,29.78,NW,316,1.0,8.0,17,0.00,,,0.00,Wunderground v.1.15,2013-08-31 20:47:00,
2013-08-31 13:52:00,89.9,39.2,29.78,WNW,302,4.0,9.0,17,0.00,,,0.00,Wunderground v.1.15,2013-08-31 20:52:00,
2013-08-31 13:57:00,89.9,37.7,29.78,NNE,20,1.0,10.0,16,0.00,,,0.00,Wunderground v.1.15,2013-08-31 20:57:00,
2013-08-31 14:02:00,89.7,39.1,29.77,West,274,2.0,7.0,17,0.00,,,0.00,Wunderground v.1.15,2013-08-31 21:02:00,
2013-08-31 14:07:00,90.3,39.6,29.77,West,263,1.0,7.0,17,0.00,,,0.00,Wunderground v.1.15,2013-08-31 21:07:00,
2013-08-31 14:12:00,91.0,38.6,29.77,NNW,347,4.0,8.0,16,0.00,,,0.00,Wunderground v.1.15,2013-08-31 21:12:00,
2013-08-31 14:17:00,90.5,39.7,29.77,NE,40,8.0,9.0,17,0.00,,,0.00,Wunderground v.1.15,2013-08-31 21:17:00,
2013-08-31 14:22:00,90.5,41.2,29.77,NNE,25,2.0,4.0,18,0.00,,,0.00,Wunderground v.1.15,2013-08-31 21:22:00,
2013-08-31 14:27:00,91.0,38.6,29.77,West,275,6.0,9.0,16,0.00,,,0.00,Wunderground v.1.15,2013-08-31 21:27:00,
2013-08-31 14:32:00,91.4,38.9,29.76,NW,319,0.0,9.0,16,0.00,,,0.00,Wunderground v.1.15,2013-08-31 21:32:00,
2013-08-31 14:37:00,91.4,40.5,29.76,NW,306,8.0,9.0,17,0.00,,,0.00,Wunderground v.1.15,2013-08-31 21:37:00,
2013-08-31 14:42:00,91.2,38.7,29.76,NNW,330,8.0,11.0,16,0.00,,,0.00,Wunderground v.1.15,2013-08-31 21:42:00,
2013-08-31 14:48:00,91.4,40.5,29.75,NW,306,8.0,11.0,17,0.00,,,0.00,Wunderground v.1.15,2013-08-31 21:48:00,
2013-08-31 14:53:00,91.6,39.1,29.75,WSW,254,2.0,8.0,16,0.00,,,0.00,Wunderground v.1.15,2013-08-31 21:53:00,
2013-08-31 14:59:00,91.8,39.2,29.75,West,265,6.0,13.0,16,0.00,,,0.00,Wunderground v.1.15,2013-08-31 21:59:00,
2013-08-31 15:04:00,91.8,39.2,29.74,WSW,251,2.0,13.0,16,0.00,,,0.00,Wunderground v.1.15,2013-08-31 22:04:00,
2013-08-31 15:09:00,91.8,39.2,29.74,WSW,251,13.0,13.0,16,0.00,,,0.00,Wunderground v.1.15,2013-08-31 22:09:00,
2013-08-31 15:14:00,91.2,38.7,29.74,West,275,4.0,15.0,16,0.00,,,0.00,Wunderground v.1.15,2013-08-31 22:14:00,
2013-08-31 15:19:00,91.0,38.6,29.75,West,281,2.0,15.0,16,0.00,,,0.00,Wunderground v.1.15,2013-08-31 22:19:00,
2013-08-31 15:24:00,91.2,40.3,29.75,NW,312,9.0,11.0,17,0.00,,,0.00,Wunderground v.1.15,2013-08-31 22:24:00,
2013-08-31 15:29:00,91.0,40.1,29.75,WSW,247,2.0,14.0,17,0.00,,,0.00,Wunderground v.1.15,2013-08-31 22:29:00,
2013-08-31 15:34:00,90.3,39.6,29.75,NW,308,10.0,16.0,17,0.00,,,0.00,Wunderground v.1.15,2013-08-31 22:34:00,
2013-08-31 15:39:00,89.9,40.7,29.75,WNW,295,6.0,16.0,18,0.00,,,0.00,Wunderground v.1.15,2013-08-31 22:39:00,
2013-08-31 15:44:00,90.1,39.4,29.75,West,275,8.0,15.0,17,0.00,,,0.00,Wunderground v.1.15,2013-08-31 22:44:00,
2013-08-31 15:49:00,90.7,41.4,29.75,WSW,246,9.0,15.0,18,0.00,,,0.00,Wunderground v.1.15,2013-08-31 22:49:00,
2013-08-31 15:54:00,91.0,40.1,29.75,SSW,209,6.0,14.0,17,0.00,,,0.00,Wunderground v.1.15,2013-08-31 22:54:00,
2013-08-31 15:59:00,90.3,39.6,29.75,West,280,1.0,15.0,17,0.00,,,0.00,Wunderground v.1.15,2013-08-31 22:59:00,
2013-08-31 16:04:00,90.1,39.4,29.75,West,271,11.0,13.0,17,0.00,,,0.00,Wunderground v.1.15,2013-08-31 23:04:00,
2013-08-31 16:09:00,90.1,40.9,29.75,NW,312,11.0,13.0,18,0.00,,,0.00,Wunderground v.1.15,2013-08-31 23:09:00,
2013-08-31 16:14:00,90.1,40.9,29.75,WSW,253,13.0,13.0,18,0.00,,,0.00,Wunderground v.1.15,2013-08-31 23:14:00,
2013-08-31 16:19:00,90.1,40.9,29.75,WNW,299,9.0,15.0,18,0.00,,,0.00,Wunderground v.1.15,2013-08-31 23:19:00,
2013-08-31 16:24:00,90.1,42.3,29.75,WSW,250,8.0,10.0,19,0.00,,,0.00,Wunderground v.1.15,2013-08-31 23:24:00,
2013-08-31 16:29:00,90.5,41.2,29.75,WSW,254,8.0,13.0,18,0.00,,,0.00,Wunderground v.1.15,2013-08-31 23:29:00,
2013-08-31 16:34:00,89.9,40.7,29.75,West,277,7.0,14.0,18,0.00,,,0.00,Wunderground v.1.15,2013-08-31 23:34:00,
2013-08-31 16:39:00,89.5,40.4,29.75,West,264,11.0,16.0,18,0.00,,,0.00,Wunderground v.1.15,2013-08-31 23:39:00,
2013-08-31 16:44:00,89.5,40.4,29.75,WNW,301,4.0,9.0,18,0.00,,,0.00,Wunderground v.1.15,2013-08-31 23:44:00,
2013-08-31 16:49:00,89.7,42.0,29.75,West,265,9.0,13.0,19,0.00,,,0.00,Wunderground v.1.15,2013-08-31 23:49:00,
2013-08-31 16:54:00,89.7,39.1,29.75,West,263,7.0,13.0,17,0.00,,,0.00,Wunderground v.1.15,2013-08-31 23:54:00,
2013-08-31 16:59:00,89.0,40.0,29.75,West,261,8.0,15.0,18,0.00,,,0.00,Wunderground v.1.15,2013-08-31 23:59:00,
2013-08-31 17:04:00,88.8,41.2,29.75,NW,305,2.0,13.0,19,0.00,,,0.00,Wunderground v.1.15,2013-09-01 00:04:00,
2013-08-31 17:09:00,88.8,41.2,29.75,SW,233,4.0,13.0,19,0.00,,,0.00,Wunderground v.1.15,2013-09-01 00:09:00,
2013-08-31 17:14:00,88.6,41.1,29.76,WSW,253,2.0,10.0,19,0.00,,,0.00,Wunderground v.1.15,2013-09-01 00:14:00,
2013-08-31 17:19:00,88.6,41.1,29.76,NNW,330,1.0,10.0,19,0.00,,,0.00,Wunderground v.1.15,2013-09-01 00:19:00,
2013-08-31 17:24:00,88.6,41.1,29.76,WSW,251,1.0,13.0,19,0.00,,,0.00,Wunderground v.1.15,2013-09-01 00:24:00,
2013-08-31 17:29:00,88.0,40.6,29.76,WSW,243,7.0,16.0,19,0.00,,,0.00,Wunderground v.1.15,2013-09-01 00:29:00,
2013-08-31 17:34:00,87.6,40.2,29.76,WSW,257,4.0,10.0,19,0.00,,,0.00,Wunderground v.1.15,2013-09-01 00:34:00,
2013-08-31 17:39:00,87.2,39.9,29.76,WSW,239,2.0,14.0,19,0.00,,,0.00,Wunderground v.1.15,2013-09-01 00:39:00,
2013-08-31 17:45:00,86.1,40.3,29.78,WNW,294,6.0,14.0,20,0.00,,,0.00,Wunderground v.1.15,2013-09-01 00:45:00,
2013-08-31 17:50:00,85.5,39.8,29.78,WSW,250,2.0,6.0,20,0.00,,,0.00,Wunderground v.1.15,2013-09-01 00:50:00,
2013-08-31 17:55:00,84.9,39.3,29.78,WSW,256,8.0,15.0,20,0.00,,,0.00,Wunderground v.1.15,2013-09-01 00:55:00,
2013-08-31 18:00:00,84.5,40.3,29.79,West,263,4.0,7.0,21,0.00,,,0.00,Wunderground v.1.15,2013-09-01 01:00:00,
2013-08-31 18:05:00,84.3,40.1,29.79,WSW,253,1.0,11.0,21,0.00,,,0.00,Wunderground v.1.15,2013-09-01 01:05:00,
2013-08-31 18:10:00,84.0,41.1,29.79,West,281,8.0,8.0,22,0.00,,,0.00,Wunderground v.1.15,2013-09-01 01:10:00,
2013-08-31 18:15:00,83.6,40.7,29.79,NW,304,6.0,11.0,22,0.00,,,0.00,Wunderground v.1.15,2013-09-01 01:15:00,
2013-08-31 18:20:00,83.2,40.4,29.79,WSW,256,6.0,10.0,22,0.00,,,0.00,Wunderground v.1.15,2013-09-01 01:20:00,
2013-08-31 18:25:00,82.8,41.2,29.79,SW,236,4.0,10.0,23,0.00,,,0.00,Wunderground v.1.15,2013-09-01 01:25:00,
2013-08-31 18:30:00,82.6,41.0,29.80,WSW,254,6.0,9.0,23,0.00,,,0.00,Wunderground v.1.15,2013-09-01 01:30:00,
2013-08-31 18:35:00,82.2,40.7,29.80,WSW,247,10.0,10.0,23,0.00,,,0.00,Wunderground v.1.15,2013-09-01 01:35:00,
2013-08-31 18:40:00,81.8,40.4,29.80,West,260,4.0,10.0,23,0.00,,,0.00,Wunderground v.1.15,2013-09-01 01:40:00,
2013-08-31 18:45:00,81.4,41.1,29.80,West,280,7.0,14.0,24,0.00,,,0.00,Wunderground v.1.15,2013-09-01 01:45:00,
2013-08-31 18:50:00,81.2,41.0,29.80,NNW,328,2.0,7.0,24,0.00,,,0.00,Wunderground v.1.15,2013-09-01 01:50:00,
2013-08-31 18:55:00,80.9,40.7,29.80,West,267,4.0,11.0,24,0.00,,,0.00,Wunderground v.1.15,2013-09-01 01:55:00,
2013-08-31 19:00:00,80.7,40.5,29.81,West,270,1.0,8.0,24,0.00,,,0.00,Wunderground v.1.15,2013-09-01 02:00:00,
2013-08-31 19:05:00,80.9,40.7,29.81,WSW,253,7.0,10.0,24,0.00,,,0.00,Wunderground v.1.15,2013-09-01 02:05:00,
2013-08-31 19:10:00,80.7,40.5,29.81,SSW,213,2.0,6.0,24,0.00,,,0.00,Wunderground v.1.15,2013-09-01 02:10:00,
2013-08-31 19:15:00,80.5,41.4,29.79,WSW,246,6.0,9.0,25,0.00,,,0.00,Wunderground v.1.15,2013-09-01 02:15:00,
2013-08-31 19:20:00,80.1,42.1,29.79,West,261,0.0,7.0,26,0.00,,,0.00,Wunderground v.1.15,2013-09-01 02:20:00,
2013-08-31 19:26:00,79.9,40.9,29.79,West,264,6.0,7.0,25,0.00,,,0.00,Wunderground v.1.15,2013-09-01 02:26:00,
2013-08-31 19:31:00,79.8,40.8,29.80,West,268,7.0,7.0,25,0.00,,,0.00,Wunderground v.1.15,2013-09-01 02:31:00,
2013-08-31 19:36:00,79.6,40.7,29.80,West,268,6.0,10.0,25,0.00,,,0.00,Wunderground v.1.15,2013-09-01 02:36:00,
2013-08-31 19:41:00,79.2,41.3,29.80,WSW,254,6.0,7.0,26,0.00,,,0.00,Wunderground v.1.15,2013-09-01 02:41:00,
2013-08-31 19:46:00,78.8,41.0,29.81,West,281,0.0,7.0,26,0.00,,,0.00,Wunderground v.1.15,2013-09-01 02:46:00,
2013-08-31 19:51:00,78.6,40.8,29.81,West,278,0.0,1.0,26,0.00,,,0.00,Wunderground v.1.15,2013-09-01 02:51:00,
2013-08-31 19:56:00,78.3,41.6,29.81,SW,216,1.0,4.0,27,0.00,,,0.00,Wunderground v.1.15,2013-09-01 02:56:00,
2013-08-31 20:01:00,77.9,41.2,29.81,South,179,0.0,0.0,27,0.00,,,0.00,Wunderground v.1.15,2013-09-01 03:01:00,
2013-08-31 20:06:00,77.6,41.0,29.81,East,92,4.0,7.0,27,0.00,,,0.00,Wunderground v.1.15,2013-09-01 03:06:00,
2013-08-31 20:11:00,77.4,41.7,29.81,East,92,0.0,2.0,28,0.00,,,0.00,Wunderground v.1.15,2013-09-01 03:11:00,
2013-08-31 20:16:00,77.0,40.4,29.78,NE,48,0.0,2.0,27,0.00,,,0.00,Wunderground v.1.15,2013-09-01 03:16:00,
2013-08-31 20:21:00,77.0,40.4,29.78,NE,48,0.0,0.0,27,0.00,,,0.00,Wunderground v.1.15,2013-09-01 03:21:00,
2013-08-31 20:26:00,77.2,39.6,29.78,NE,48,0.0,2.0,26,0.00,,,0.00,Wunderground v.1.15,2013-09-01 03:26:00,
2013-08-31 20:31:00,77.0,40.4,29.78,NE,48,0.0,1.0,27,0.00,,,0.00,Wunderground v.1.15,2013-09-01 03:31:00,
2013-08-31 20:36:00,76.5,41.0,29.78,ENE,76,1.0,2.0,28,0.00,,,0.00,Wunderground v.1.15,2013-09-01 03:36:00,
2013-08-31 20:41:00,75.8,41.3,29.78,ENE,78,0.0,2.0,29,0.00,,,0.00,Wunderground v.1.15,2013-09-01 03:41:00,
2013-08-31 20:46:00,74.7,41.2,29.80,ENE,73,0.0,2.0,30,0.00,,,0.00,Wunderground v.1.15,2013-09-01 03:46:00,
2013-08-31 20:51:00,73.9,42.2,29.80,ENE,73,0.0,1.0,32,0.00,,,0.00,Wunderground v.1.15,2013-09-01 03:51:00,
2013-08-31 20:57:00,73.0,41.4,29.80,ENE,73,0.0,1.0,32,0.00,,,0.00,Wunderground v.1.15,2013-09-01 03:57:00,
2013-08-31 21:01:00,72.3,40.8,29.81,ENE,73,0.0,0.0,32,0.00,,,0.00,Wunderground v.1.15,2013-09-01 04:01:00,
2013-08-31 21:02:00,72.1,40.6,29.81,ENE,73,0.0,0.0,32,0.00,,,0.00,Wunderground v.1.15,2013-09-01 04:02:00,
2013-08-31 21:03:00,72.1,41.4,29.81,ENE,73,0.0,1.0,33,0.00,,,0.00,Wunderground v.1.15,2013-09-01 04:03:00,
2013-08-31 21:08:00,71.6,41.7,29.81,ENE,73,0.0,1.0,34,0.00,,,0.00,Wunderground v.1.15,2013-09-01 04:08:00,
2013-08-31 21:13:00,71.3,41.5,29.81,ENE,73,0.0,0.0,34,0.00,,,0.00,Wunderground v.1.15,2013-09-01 04:13:00,
2013-08-31 21:19:00,70.9,41.9,29.80,ENE,73,0.0,0.0,35,0.00,,,0.00,Wunderground v.1.15,2013-09-01 04:19:00,
2013-08-31 21:24:00,70.6,41.6,29.80,ENE,73,0.0,1.0,35,0.00,,,0.00,Wunderground v.1.15,2013-09-01 04:24:00,
2013-08-31 21:29:00,70.3,42.1,29.80,ENE,73,0.0,1.0,36,0.00,,,0.00,Wunderground v.1.15,2013-09-01 04:29:00,
2013-08-31 21:34:00,69.9,41.7,29.81,ENE,73,0.0,0.0,36,0.00,,,0.00,Wunderground v.1.15,2013-09-01 04:34:00,
2013-08-31 21:39:00,69.6,41.5,29.81,ENE,73,0.0,1.0,36,0.00,,,0.00,Wunderground v.1.15,2013-09-01 04:39:00,
2013-08-31 21:44:00,69.3,41.2,29.81,ENE,73,0.0,1.0,36,0.00,,,0.00,Wunderground v.1.15,2013-09-01 04:44:00,
2013-08-31 21:49:00,69.1,41.0,29.81,ENE,73,0.0,1.0,36,0.00,,,0.00,Wunderground v.1.15,2013-09-01 04:49:00,
2013-08-31 21:54:00,69.1,41.0,29.81,ENE,73,0.0,0.0,36,0.00,,,0.00,Wunderground v.1.15,2013-09-01 04:54:00,
2013-08-31 21:59:00,68.8,42.1,29.81,ENE,73,0.0,1.0,38,0.00,,,0.00,Wunderground v.1.15,2013-09-01 04:59:00,
2013-08-31 22:04:00,68.4,41.1,29.81,ENE,73,0.0,1.0,37,0.00,,,0.00,Wunderground v.1.15,2013-09-01 05:04:00,
2013-08-31 22:09:00,68.1,39.4,29.81,ENE,73,0.0,1.0,35,0.00,,,0.00,Wunderground v.1.15,2013-09-01 05:09:00,
2013-08-31 22:14:00,68.3,41.0,29.81,ENE,73,0.0,0.0,37,0.00,,,0.00,Wunderground v.1.15,2013-09-01 05:14:00,
2013-08-31 22:19:00,67.9,40.7,29.78,ENE,73,0.0,1.0,37,0.00,,,0.00,Wunderground v.1.15,2013-09-01 05:19:00,
2013-08-31 22:24:00,67.8,40.6,29.78,ENE,73,0.0,0.0,37,0.00,,,0.00,Wunderground v.1.15,2013-09-01 05:24:00,
2013-08-31 22:29:00,67.6,41.1,29.78,ENE,73,0.0,0.0,38,0.00,,,0.00,Wunderground v.1.15,2013-09-01 05:29:00,
2013-08-31 22:34:00,67.3,40.8,29.79,East,95,6.0,6.0,38,0.00,,,0.00,Wunderground v.1.15,2013-09-01 05:34:00,
2013-08-31 22:39:00,67.6,39.0,29.79,East,100,0.0,11.0,35,0.00,,,0.00,Wunderground v.1.15,2013-09-01 05:39:00,
2013-08-31 22:44:00,68.3,40.3,29.79,East,100,0.0,3.0,36,0.00,,,0.00,Wunderground v.1.15,2013-09-01 05:44:00,
2013-08-31 22:49:00,68.4,40.4,29.79,East,100,0.0,3.0,36,0.00,,,0.00,Wunderground v.1.15,2013-09-01 05:49:00,
2013-08-31 22:54:00,68.4,41.1,29.79,East,100,0.0,1.0,37,0.00,,,0.00,Wunderground v.1.15,2013-09-01 05:54:00,
2013-08-31 22:59:00,68.3,41.7,29.79,East,100,0.0,1.0,38,0.00,,,0.00,Wunderground v.1.15,2013-09-01 05:59:00,
2013-08-31 23:04:00,68.1,41.5,29.79,East,100,0.0,1.0,38,0.00,,,0.00,Wunderground v.1.15,2013-09-01 06:04:00,
2013-08-31 23:09:00,67.9,42.0,29.79,ESE,102,0.0,1.0,39,0.00,,,0.00,Wunderground v.1.15,2013-09-01 06:09:00,
2013-08-31 23:14:00,67.8,41.9,29.75,ESE,102,0.0,1.0,39,0.00,,,0.00,Wunderground v.1.15,2013-09-01 06:14:00,
2013-08-31 23:19:00,67.8,41.3,29.75,ESE,102,0.0,1.0,38,0.00,,,0.00,Wunderground v.1.15,2013-09-01 06:19:00,
2013-08-31 23:24:00,67.8,41.3,29.75,ESE,102,0.0,1.0,38,0.00,,,0.00,Wunderground v.1.15,2013-09-01 06:24:00,
2013-08-31 23:29:00,67.9,41.3,29.76,ESE,102,0.0,1.0,38,0.00,,,0.00,Wunderground v.1.15,2013-09-01 06:29:00,
2013-08-31 23:34:00,67.9,42.0,29.76,ESE,102,0.0,0.0,39,0.00,,,0.00,Wunderground v.1.15,2013-09-01 06:34:00,
2013-08-31 23:39:00,67.9,42.7,29.76,ESE,102,0.0,1.0,40,0.00,,,0.00,Wunderground v.1.15,2013-09-01 06:39:00,
2013-08-31 23:44:00,67.8,43.2,29.76,ESE,102,0.0,1.0,41,0.00,,,0.00,Wunderground v.1.15,2013-09-01 06:44:00,
2013-08-31 23:49:00,67.6,43.7,29.76,ESE,102,0.0,1.0,42,0.00,,,0.00,Wunderground v.1.15,2013-09-01 06:49:00,
2013-08-31 23:54:00,67.3,43.4,29.76,ESE,102,0.0,1.0,42,0.00,,,0.00,Wunderground v.1.15,2013-09-01 06:54:00,
2013-08-31 23:59:00,66.9,44.3,29.76,ESE,102,0.0,2.0,44,0.00,,,0.00,Wunderground v.1.15,2013-09-01 06:59:00,